Regional Weather Roundup
Issued by NWS

Home | Current Version | Previous Version | Text Only | Print | Product List | Glossary On
Versions: 1 2 3 4 5 6 7 8 9 10 11 12 13 14 15 16 17 18 19 20 21 22 23 24 25 26 27 28 29 30 31 32 33 34 35 36 37 38 39 40 41 42 43 44 45 46 47 48 49 50
000
ASUS43 KIND 170409
RWRIN

WEATHER ROUNDUP FOR INDIANA
NATIONAL WEATHER SERVICE INDIANAPOLIS IN
1200 AM EDT THU APR 17 2014

NOTE: "FAIR" INDICATES FEW OR NO CLOUDS BELOW 12,000 FEET WITH NO
SIGNIFICANT WEATHER AND/OR OBSTRUCTIONS TO VISIBILITY.

* - STATION DOES NOT REPORT WEATHER SUCH AS PRECIPITATION OR FOG.

+ - STATION NOT QUALITY CONTROLLED BY THE NATIONAL WEATHER SERVICE.
    USE DATA WITH CAUTION...ESPECIALLY DEWPOINT AND RELATIVE
    HUMIDITY OBSERVATIONS.

INZ001>003-010>013-019-020-170500-
NORTHWEST INDIANA

CITY           SKY/WX    TMP DP  RH WIND       PRES   REMARKS
GARY /AIRPORT/ CLEAR     46  24  42 SE10G20   30.17R
LA PORTE +     PTCLDY    40  24  51 SE12      30.20F
MICHIGAN CITY+ MOCLDY    43  23  45 SE14G20   30.19F
MONTICELLO +   PTCLDY    42  26  53 SE7       30.20F
RENSSELAER +   PTCLDY    43  25  49 SE8G18    30.18F
VALPARAISO     PTCLDY    41  24  51 SE13G21   30.19F

$$

LMZ046-743>745-170500-
SOUTHERN LAKE MICHIGAN

STATION/POSITION TIME  TEMP WIND        PRES
                       AIR  DIR/SP/G
                 (UTC) (F)  (DEG/KT/KT) (MB)
MICHIGAN CITY    0400   44  120/ 17/ 26   N/A

$$

INZ004-005-014>016-021>024-170500-
NORTH CENTRAL INDIANA

CITY           SKY/WX    TMP DP  RH WIND       PRES   REMARKS
GOSHEN         MOCLDY    41  27  57 SE14      30.25F
LOGANSPORT +   PTCLDY    37  28  70 E13       30.23F
PERU/GRISSOM   PTCLDY    38  30  70 SE13      30.22F
ROCHESTER +    PTCLDY    43  28  56 SE13      30.24F
SOUTH BEND     MOCLDY    43  24  47 SE16      30.23S
WARSAW +       PTCLDY    39  27  60 SE13      30.25F

$$

INZ006>009-017-018-025>027-170500-
NORTHEAST INDIANA

CITY           SKY/WX    TMP DP  RH WIND       PRES   REMARKS
ANGOLA *+      CLEAR     36  28  75 SE13      30.28F
AUBURN +       PTCLDY    37  28  70 E10       30.30S
FORT WAYNE     MOCLDY    37  26  64 E9        30.29S

$$

INZ028-029-035-036-043>045-051>053-170500-
WEST CENTRAL INDIANA

CITY           SKY/WX    TMP DP  RH WIND       PRES   REMARKS
GREENCASTLE +  CLEAR     41  27  56 SE9       30.21F
LAFAYETTE      PTCLDY    40  24  53 E10       30.20F
TERRE HAUTE    CLEAR     44  25  47 SE9       30.18F

$$

INZ030>032-037>040-046>048-054>057-064-065-170500-
CENTRAL INDIANA

CITY           SKY/WX    TMP DP  RH WIND       PRES   REMARKS
CP ATTERBURY + PTCLDY    41  27  56 SE6       30.25S
FRANKFORT +    PTCLDY    39  27  60 SE12      30.22
INDIANAPOLIS   PTCLDY    41  24  51 SE10      30.22F
-EAGLE CREEK   CLEAR     43  22  43 SE8       30.22F
KOKOMO *+      PTCLDY    37  27  65 SE12      30.23F
MARION +       CLEAR     39  25  56 SE9       30.26F
MT COMFORT *+  PTCLDY    39  28  65 E7        30.24F
SHELBYVILLE    PTCLDY    38  26  62 E7        30.25S
ZIONSVILLE +   CLEAR     41  24  50 SE9       30.23F

$$

INZ033-034-041-042-049-050-058-059-170500-
EAST CENTRAL INDIANA

CITY           SKY/WX    TMP DP  RH WIND       PRES   REMARKS
MUNCIE         PTCLDY    35  27  72 SE8       30.26F WCI  29

$$

INZ060-061-067>069-081>083-085>088-170500-
SOUTHWEST INDIANA

CITY           SKY/WX    TMP DP  RH WIND       PRES   REMARKS
EVANSVILLE     PTCLDY    47  28  47 CALM      30.21S
HUNTINGBURG *+ PTCLDY    43  25  49 SE7       30.22S
WASHINGTON +   PTCLDY    42  31  67 SE5       30.20F

$$

INZ062-063-066-070>080-084-089>092-170500-
SOUTH CENTRAL AND SOUTHEAST INDIANA

CITY           SKY/WX    TMP DP  RH WIND       PRES   REMARKS
BLOOMINGTON    CLEAR     44  23  43 SE8       30.22S

$$




USA.gov is the U.S. government's official web portal to all federal, state and local government web resources and services.